Weather Service Report


615 
ASUS44 KLIX 012307
RWRLA 
LOUISIANA WEATHER ROUNDUP
NATIONAL WEATHER SERVICE NEW ORLEANS LA
600 PM CDT WED APR 01 2015

NOTE: "FAIR" INDICATES FEW OR NO CLOUDS BELOW 12,000 FEET WITH NO
      SIGNIFICANT WEATHER AND/OR OBSTRUCTIONS TO VISIBILITY.
      SKY/WX - SKY CONDITION AND SIGNIFICANT WEATHER.
      TMP - AIR TEMPERATURE.    DP   - DEWPOINT TEMPERATURE.
      RH  - RELATIVE HUMIDITY.  PRES - PRESSURE.
      HX  - HEAT INDEX.         WCI  - WIND CHILL INDEX.

*  THESE STATIONS ARE NOT NWS OR FAA STATIONS AND ARE NOT UNDER
   NWS QUALITY CONTROL.

LAZ040-048-061>063-065-066-069-020000-
SOUTHEAST LOUISIANA
  
CITY           SKY/WX    TMP DP  RH WIND       PRES   REMARKS
N.O. AUDUBON     N/A     78  67  68 MISG        N/A                   
N.O. INTL ARPT CLOUDY    77  61  57 S13       30.03S                  
N.O. LAKEFRONT CLOUDY    79  60  52 SW13      30.03S                  
SLIDELL        CLOUDY    77  65  66 S9        30.03R                  
BATON ROUGE    CLOUDY    77  62  59 S14G22    30.00S                  
BOOTHVILLE     CLOUDY    76  69  79 S6        30.05S                  
BELLE CHASSE   CLOUDY    75  64  68 S12       30.03S                  
BOGALUSA*        N/A     80  58  47 SW8       30.03S                  
GALLIANO*      CLOUDY    77  66  68 S6        30.05R                  
NEW ROADS*     FAIR      76  61  59 S7        30.00R                  
GONZALES*      MOCLDY    77  64  63 S10       30.01S                  
HAMMOND*       CLOUDY    77  61  57 S8        30.02S                  
HOUMA*         MOSUNNY   75  66  73 S7        30.03                   
PORT FOURCHON* CLEAR     75  68  78 SE7       30.08R                  

$$

LAZ041-044-053-054-020000-
SOUTHWEST LOUISIANA
  
CITY           SKY/WX    TMP DP  RH WIND       PRES   REMARKS
LAKE CHARLES   CLOUDY    75  66  73 S10       29.96F                  
LAFAYETTE      CLOUDY    76  64  66 S13       30.00S                  
PATTERSON      CLOUDY    75  64  69 S7        30.03F                  
SALT POINT       N/A     73  68  84 VRB5      30.00F                  
NEW IBERIA     CLOUDY    76  66  71 S13       30.01S                  
CHENAULT AIRPK PTSUNNY   75  66  73 S12       29.97F                  

$$

LAZ027-028-020000-
CENTRAL LOUISIANA
  
CITY           SKY/WX    TMP DP  RH WIND       PRES   REMARKS
FORT POLK      CLOUDY    72  68  87 S8        29.94S                  
ALEXANDRIA INT CLOUDY    77  63  61 S7        29.95R                  
ALEXANDRIA     CLOUDY    79  63  57 S8        29.97R                  

$$

LAZ001-002-020000-
NORTHWEST LOUISIANA
  
CITY           SKY/WX    TMP DP  RH WIND       PRES   REMARKS
SHREVEPORT     PTSUNNY   82  59  45 SW12      29.87F                  
BARKSDALE AFB  MOSUNNY   83  60  45 S13       29.87F                  
DTN SHREVEPORT MOSUNNY   80  58  46 S14       29.87F                  

$$

LAZ014-016-020000-
NORTHEAST LOUISIANA
  
CITY           SKY/WX    TMP DP  RH WIND       PRES   REMARKS
MONROE         PTSUNNY   81  60  48 S12       29.93S                  
TALLULAH       PTSUNNY   80  52  37 SW7       29.95F                  

$$



616 
ASUS44 KLIX 012307
RWRLIX
NEW ORLEANS REGIONAL WEATHER ROUNDUP
NATIONAL WEATHER SERVICE NEW ORLEANS LA
600 PM CDT WED APR 01 2015

NOTE: "FAIR" INDICATES FEW OR NO CLOUDS BELOW 12,000 FEET WITH NO
      SIGNIFICANT WEATHER AND/OR OBSTRUCTIONS TO VISIBILITY.
      SKY/WX - SKY CONDITION AND SIGNIFICANT WEATHER.
      TMP - AIR TEMPERATURE.     DP    - DEWPOINT TEMPERATURE.
      RH  - RELATIVE HUMIDITY.   PRES  - PRESSURE.
      HI  - HEAT INDEX.          WCI   - WIND CHILL INDEX.

*  THESE STATIONS ARE NOT NWS OR FAA STATIONS AND ARE NOT UNDER
   NWS QUALITY CONTROL. 

LAZ038-040-048-061>063-065>067-069-020000-
SOUTHEAST LOUISIANA
  
CITY           SKY/WX    TMP DP  RH WIND       PRES   REMARKS
N.O. AUDUBON     N/A     78  67  68 MISG        N/A                   
N.O. INTL ARPT CLOUDY    77  61  57 S13       30.03S                  
N.O. LAKEFRONT CLOUDY    79  60  52 SW13      30.03S                  
SLIDELL        CLOUDY    77  65  66 S9        30.03R                  
BATON ROUGE    CLOUDY    77  62  59 S14G22    30.00S                  
BOOTHVILLE     CLOUDY    76  69  79 S6        30.05S                  
BELLE CHASSE   CLOUDY    75  64  68 S12       30.03S                  
BOGALUSA*        N/A     80  58  47 SW8       30.03S                  
GALLIANO*      CLOUDY    77  66  68 S6        30.05R                  
NEW ROADS*       N/A     76  61  59 S7        30.00R                  
GONZALES*      MOCLDY    77  64  63 S10       30.01S                  
HAMMOND*       CLOUDY    77  61  57 S8        30.02S                  
HOUMA*         MOSUNNY   75  66  73 S7        30.03                   
PORT FOURCHON* CLEAR     75  68  78 SE7       30.08R                  

$$

MSZ070-080>082-020000-
SOUTHERN MISSISSIPPI
  
CITY           SKY/WX    TMP DP  RH WIND       PRES   REMARKS
MCCOMB         CLOUDY    77  60  55 S8        30.00S                  
GULFPORT       CLOUDY    74  66  76 SE13      30.05R                  
BILOXI         CLOUDY    73  67  81 S10       30.05S                  
PASCAGOULA     CLOUDY    74  64  71 S7        30.05S                  
STENNIS ARPT*  MOSUNNY   73  63  68 MISG      30.04S                  

$$

COASTAL OBSERVATIONS
LAKE AND NEARSHORE STATIONS
  
STATION/POSITION TIME  TEMP    WIND        PRES    WAVE
                       AIR SEA DIR/SP/G            HT/PER
                 (UTC) (F)     (DEG/KT/KT) (MB)    (FT/S)
PASCAGOULA       2200   74     180/  8/ 10 1017.5
WAVELAND YACHT   2200   72 71  150/ 12/ 15 1017.3
GRAND ISLE       2200   74 71  160/  5/  8 1017.4
SOUTHWEST PASS   2200   75 56  140/  2/  5 1018.1
NEW CANAL        2200   77     210/ 10/ 14 1017.3
SHELL BEACH      2200   75 73  140/ 10/ 13 1017.2

OFFSHORE STATIONS
  
STATION/POSITION TIME  TEMP    WIND        PRES    WAVE
                       AIR SEA DIR/SP/G            HT/PER
                 (UTC) (F)     (DEG/KT/KT) (MB)    (FT/S)
64 S DAUPHIN ISL 2250   74 74  180/ 10/ 14 1018.4    2/ 4

$$


Return to Home page


Western Regional Climate Center, wrcc@dri.edu